一网星座-0006星 (ONEWEB-0006 )

导读

ONEWEB-0006是英国OneWeb星座的卫星,于2019年2月27日发射,属于OneWeb低轨互联网星座的组网卫星,承担全球宽带互联网接入服务的相关任务。作为低轨卫星星座组成部分,它具备广覆盖、低延迟特性,除民用通信组网外,该星座也具备潜在的军事应用价值,是全球低轨巨型卫星互联网建设进程中的一颗 early 阶段卫星。

基本信息
目录编号:
44061
目录名称:
ONEWEB-0006
国际标识:
2019-010E
轨道中心:
EARTH
卫星名称:
一网星座-0006星
卫星全名:
一网星座-0006星 (ONEWEB-0006 )
卫星状态:
在轨 (已飞行2662 天)
发射日期:
2019-02-27 UTC
国别 :
英国 (GB)
星等 :
--
轨道信息
数据来源 国际轨道数据
星历时间: 2026-06-12T13:55:54+0800
14小时前
查看轨道信息
半长轴: 7579.908km
偏心率: 0.0001828
轨道倾角: 87.901°
近地点辐角 102.962°
升交点赤经 260.169°
平近点角 257.171°
近地点: 1200.385km
远地点: 1203.157km
周期: 109.460分钟
每日圈数: 13.155486
详细信息
平衡模式:
三轴稳定
覆盖范围:
全球
运营商:
一网卫星公司
运营商所在国:
英国
制造商(研发单位):
空客防务与航天公司
制造商所在国:
法国大都会
使用方式:
暂无
卫星简介
OneWeb卫星网络由648颗重约125公斤的微型卫星组成,运行在1200公里的轨道上。 每颗卫星都能够提供至少每秒8千兆位的吞吐量,以使用其高吞吐量的Ku频段有效载荷为家庭和移动平台提供互联网接入。该卫星仍在工作。
2D轨道图
3D轨道图
轨道高度分析图
轨道倾角分析图
轨道综合分析图
查看轨道综合分析图